Regional Weather Roundup
Issued by NWS

Home | Current Version | Previous Version | Graphics & Text | Print | Product List | Glossary On
Versions: 1 2 3 4 5 6 7 8 9 10 11 12 13 14 15 16 17 18 19 20 21 22 23 24 25 26 27 28 29 30 31 32 33 34 35 36 37 38 39 40 41 42 43 44 45 46 47 48 49 50
793
ASUS44 KLIX 010105
RWRLA
LOUISIANA WEATHER ROUNDUP
NATIONAL WEATHER SERVICE NEW ORLEANS LA
700 PM CST SAT FEB 28 2015

NOTE: "FAIR" INDICATES FEW OR NO CLOUDS BELOW 12,000 FEET WITH NO
      SIGNIFICANT WEATHER AND/OR OBSTRUCTIONS TO VISIBILITY.
      SKY/WX - SKY CONDITION AND SIGNIFICANT WEATHER.
      TMP - AIR TEMPERATURE.    DP   - DEWPOINT TEMPERATURE.
      RH  - RELATIVE HUMIDITY.  PRES - PRESSURE.
      HX  - HEAT INDEX.         WCI  - WIND CHILL INDEX.

*  THESE STATIONS ARE NOT NWS OR FAA STATIONS AND ARE NOT UNDER
   NWS QUALITY CONTROL.

LAZ040-048-061>063-065-066-069-010200-
SOUTHEAST LOUISIANA

CITY           SKY/WX    TMP DP  RH WIND       PRES   REMARKS
N.O. AUDUBON     N/A     58  52  81 MISG        N/A
N.O. INTL ARPT MOCLDY    57  49  74 E8        30.33R
N.O. LAKEFRONT CLOUDY    58  49  72 E10       30.33F
SLIDELL        CLOUDY    59  50  72 E5        30.34R
BATON ROUGE    MOCLDY    59  41  51 E13       30.30R
BOOTHVILLE     CLOUDY    56  53  90 NE13      30.33R
BELLE CHASSE   MOCLDY    57  49  74 E9        30.32S
BOGALUSA*        N/A     60  49  66 S6        30.35R
GALLIANO*      CLOUDY    58  53  83 NE5       30.32R
NEW ROADS*     CLOUDY    60  39  46 E3        30.30R
GONZALES*      CLOUDY    57  48  72 E5        30.31R
HAMMOND*       MOCLDY    57  46  67 S6        30.34S
HOUMA*         CLOUDY    56  51  83 E13       30.31S
PORT FOURCHON* CLOUDY    57  54  88 NE15      30.33R FOG

$$

LAZ041-044-053-054-010200-
SOUTHWEST LOUISIANA

CITY           SKY/WX    TMP DP  RH WIND       PRES   REMARKS
LAKE CHARLES   CLOUDY    57  47  69 NE6       30.25S
LAFAYETTE      CLEAR     62  43  49 NE3       30.28R
PATTERSON      MOCLDY    61  50  67 E10       30.30R
SALT POINT       N/A     61  52  72 VRB5      30.27R
NEW IBERIA     PTCLDY    62  43  49 E9        30.27F
CHENAULT AIRPK NOT AVBL

$$

LAZ027-028-010200-
CENTRAL LOUISIANA

CITY           SKY/WX    TMP DP  RH WIND       PRES   REMARKS
FORT POLK      NOT AVBL
ALEXANDRIA INT CLOUDY    53  37  54 NE5       30.27F
ALEXANDRIA     CLOUDY    55  39  54 NE5       30.29F

$$

LAZ001-002-010200-
NORTHWEST LOUISIANA

CITY           SKY/WX    TMP DP  RH WIND       PRES   REMARKS
SHREVEPORT     CLOUDY    47  34  60 NE3       30.29R
BARKSDALE AFB  CLOUDY    46  33  59 NE2       30.29R
DTN SHREVEPORT CLOUDY    46  31  55 N5        30.29S

$$

LAZ014-016-010200-
NORTHEAST LOUISIANA

CITY           SKY/WX    TMP DP  RH WIND       PRES   REMARKS
MONROE         CLOUDY    47  38  71 NE5       30.33F
TALLULAH       CLOUDY    49  38  65 N6        30.33R

$$




USA.gov is the U.S. government's official web portal to all federal, state and local government web resources and services.